Powrót do katalogu

SKY MUSTER

AktywnyŁącznośćGEO
NORAD 40940·PAYLOAD·🇦🇺 Australia

Wystrzelony Sep 30, 2015 z Guiana Space Centre

Loading…

TLE

ŚwieżeSource: Space-Track

Epoka: Sep 14, 2026, 12:45 UTC

1 40940U 15054A   26257.53162873 -.00000286  00000-0  00000-0 0  9996
2 40940   0.0202 238.5852 0001738 286.9171 159.6533  1.00272463 40156

Śledź SKY MUSTER w czasie rzeczywistym z AllMySat

Download on the App Store